Stations météo

Publicité
Berlin-Schönefeld, Allemagne (10385): Température de l'air & dewpoint: 17.07.2018 19:00:00 - 23.07.2018 19:00:00 (CEST)Berlin-Schönefeld, Allemagne (10385): Température de l'air 5cm & Température de l'air -5cm: 17.07.2018 19:00:00 - 23.07.2018 19:00:00 (CEST)Berlin-Schönefeld, Allemagne (10385): Température de l'air -20cm & Température de l'air -100cm: 17.07.2018 19:00:00 - 23.07.2018 19:00:00 (CEST)Berlin-Schönefeld, Allemagne (10385): Vitesse du vent & gusts: 17.07.2018 19:00:00 - 23.07.2018 19:00:00 (CEST)Berlin-Schönefeld, Allemagne (10385): Direction du vent: 17.07.2018 19:00:00 - 23.07.2018 19:00:00 (CEST)Berlin-Schönefeld, Allemagne (10385): reduced air pressure: 17.07.2018 19:00:00 - 23.07.2018 19:00:00 (CEST)Berlin-Schönefeld, Allemagne (10385): visibility: 17.07.2018 19:00:00 - 23.07.2018 19:00:00 (CEST)Berlin-Schönefeld, Allemagne (10385): Ensoleillement: 17.07.2018 19:00:00 - 23.07.2018 19:00:00 (CEST)Berlin-Schönefeld, Allemagne (10385): Quantités de précipitations: 17.07.2018 19:00:00 - 23.07.2018 19:00:00 (CEST)
Date & Time tt [°C] td [°C] tt 5cm [°C] tt -5cm [°C] tt -20cm [°C] tt -100cm [°C] ff [km/h] ff [knt] fx [km/h] fx [knt] dd ppp [hPa] vv [km] sd [min] rr [mm]
23.07.2018 19:00:00 26,9 11,5 28,1 28,3 26,4 19,3 16 9 30 16 WNW 1015,0 10 60 0,0
23.07.2018 18:00:00 27,0 12,2 27,5 29,9 26,4 19,3 19 10 29 16 NW 1015,0 50 60 0,0
23.07.2018 17:00:00 27,1 11,5 30,3 32,5 26,1 19,3 21 11 34 18 NW 1015,3 10 60 0,0
23.07.2018 16:00:00 27,5 12,0 31,6 32,8 25,5 19,3 22 12 36 20 WNW 1015,5 50 60 0,0
23.07.2018 15:00:00 26,9 12,7 31,1 32,6 24,9 19,3 16 9 37 20 WNW 1015,5 50 60 0,0
23.07.2018 14:00:00 26,4 12,1 31,8 31,5 24,2 19,3 19 10 35 19 WNW 1015,6 45 60 0,0
23.07.2018 13:00:00 26,1 12,0 30,3 30,3 23,5 19,3 24 13 35 19 W 1015,7 45 60 0,0
23.07.2018 12:00:00 25,0 12,0 29,1 28,7 22,8 19,3 21 12 34 18 W 1016,0 45 60 0,0
23.07.2018 11:00:00 24,0 13,8 27,3 26,8 22,3 19,3 18 10 29 16 W 1016,0 10 60 0,0
23.07.2018 10:00:00 23,1 14,7 25,7 25,0 21,9 19,2 15 8 27 15 WNW 1015,8 50 60 0,0
23.07.2018 09:00:00 21,7 15,5 24,0 22,8 21,7 19,2 11 6 18 10 WNW 1015,7 50 60 0,0
23.07.2018 08:00:00 20,0 15,2 21,0 20,9 21,8 19,2 11 6 16 9 NW 1015,6 10 60 0,0
23.07.2018 07:00:00 18,6 15,4 18,5 19,9 22,0 19,2 9 5 16 9 W 1015,4 10 23 0,0
23.07.2018 06:00:00 18,2 15,4 17,4 19,9 22,3 19,2 13 7 16 9 WNW 1014,9 10 0 0,0
23.07.2018 05:00:00 18,5 15,5 17,5 20,2 22,6 19,2 11 6 15 8 WNW 1014,8 30 0 0,0
23.07.2018 04:00:00 18,9 15,4 18,0 20,7 22,9 19,2 12 6 18 10 W 1014,6 30 0 0,0
23.07.2018 03:00:00 19,6 15,5 18,7 21,2 23,2 19,2 10 6 15 8 WNW 1014,5 30 0 0,0
23.07.2018 02:00:00 19,6 15,6 18,0 21,7 23,6 19,2 5 3 13 7 W 1014,3 10 0 0,0
23.07.2018 01:00:00 20,4 15,3 17,0 22,3 23,9 19,2 5 3 13 7 W 1014,3 40 0 0,0
23.07.2018 00:00:00 22,0 15,4 20,5 23,0 24,3 19,2 9 5 20 11 N 1014,1 40 0 0,0
22.07.2018 23:00:00 22,7 14,9 21,7 23,8 24,7 19,2 12 6 18 10 NNW 1013,8 40 0 0,0
22.07.2018 22:00:00 23,4 14,7 22,1 24,8 25,0 19,1 11 6 13 7 WSW 1013,4 10 0 0,0
22.07.2018 21:00:00 25,5 12,6 22,8 26,1 25,2 19,1 5 3 8 4 SW 1012,8 10 12 0,0
22.07.2018 20:00:00 26,0 13,1 24,8 27,1 25,4 19,1 5 3 9 5 SW 1012,3 10 4 0,0
22.07.2018 19:00:00 26,6 12,5 26,9 27,9 25,5 19,1 8 4 13 7 W 1012,4 10 5 0,0
22.07.2018 18:00:00 26,6 11,7 27,0 29,2 25,4 19,1 8 4 15 8 NNW 1012,5 50 3 0,0
22.07.2018 17:00:00 26,8 11,8 29,0 30,4 25,1 19,1 9 5 18 10 NNW 1012,3 10 21 0,0
22.07.2018 16:00:00 26,6 11,7 28,8 30,7 24,7 19,1 8 4 18 10 - 1012,5 10 4 0,0
22.07.2018 15:00:00 26,8 11,1 30,3 31,0 24,2 19,1 9 5 18 10 N 1012,9 45 21 0,0
22.07.2018 14:00:00 26,3 11,0 31,8 30,3 23,5 19,1 4 2 14 8 WSW 1013,1 45 16 0,0
22.07.2018 13:00:00 26,2 10,7 29,8 29,4 22,9 19,1 5 3 18 10 - 1013,2 10 14 0,0
22.07.2018 12:00:00 25,5 9,8 29,8 28,6 22,1 19,1 9 5 15 8 - 1013,2 10 54 0,0
22.07.2018 11:00:00 24,8 10,1 30,2 25,7 21,6 19,1 6 4 13 7 E 1013,2 45 39 0,0
22.07.2018 10:00:00 23,1 11,0 25,9 23,3 21,3 19,1 5 3 8 4 E 1013,1 10 2 0,0
22.07.2018 09:00:00 21,7 13,0 25,2 21,7 21,2 19,1 2 1 11 6 - 1013,0 10 14 0,0
22.07.2018 08:00:00 19,6 13,4 21,4 20,1 21,3 19,1 5 3 11 6 E 1012,9 10 0 0,0
22.07.2018 07:00:00 16,8 13,8 17,0 19,1 21,5 19,0 5 3 7 4 NE 1012,7 35 0 0,0
22.07.2018 06:00:00 15,5 11,8 14,0 19,0 21,8 19,0 5 3 5 3 N 1012,8 35 0 0,0
22.07.2018 05:00:00 15,7 12,0 13,0 19,4 22,2 19,0 0 0 4 2 N 1012,6 35 0 0,0
22.07.2018 04:00:00 17,5 12,0 15,5 20,1 22,5 19,0 4 2 4 2 WSW 1012,3 10 0 0,0
22.07.2018 03:00:00 19,1 11,4 14,7 20,6 22,9 19,0 4 2 8 4 S 1012,4 40 0 0,0
22.07.2018 02:00:00 19,4 11,8 18,3 21,3 23,2 19,0 6 3 11 6 ENE 1012,2 40 0 0,0
22.07.2018 01:00:00 19,6 11,6 18,1 21,7 23,6 19,0 8 4 15 8 E 1012,6 40 0 0,0
22.07.2018 00:00:00 19,6 12,0 18,0 22,1 24,0 19,0 9 5 13 7 ENE 1012,1 40 0 0,0
21.07.2018 23:00:00 20,6 11,8 15,8 23,0 24,5 19,0 8 4 11 6 ENE 1011,8 40 0 0,0
21.07.2018 22:00:00 21,5 12,0 18,4 24,3 24,9 19,0 9 5 15 8 ENE 1011,4 50 0 0,0
21.07.2018 21:00:00 23,3 11,5 21,5 25,8 25,2 19,0 11 6 18 10 NE 1011,4 10 0 0,0
21.07.2018 20:00:00 25,5 11,1 25,1 27,2 25,4 19,0 15 8 22 12 NNE 1011,3 10 32 0,0
21.07.2018 19:00:00 26,9 10,5 28,7 28,2 25,5 19,0 12 7 24 13 NNE 1011,3 50 60 0,0
21.07.2018 18:00:00 26,9 9,8 28,1 29,7 25,4 19,0 13 7 23 13 N 1011,5 50 60 0,0
21.07.2018 17:00:00 27,4 10,6 31,1 32,0 24,9 19,0 11 6 22 12 NNW 1011,5 10 59 0,0
21.07.2018 16:00:00 26,8 10,0 31,3 32,2 24,3 19,0 14 7 26 14 N 1011,6 50 60 0,0
21.07.2018 15:00:00 26,4 10,2 34,6 31,6 23,6 19,0 11 6 24 13 NE 1012,0 50 59 0,0
21.07.2018 14:00:00 25,5 10,0 32,8 30,2 22,8 19,0 9 5 21 11 - 1012,4 10 39 0,0
21.07.2018 13:00:00 25,8 10,3 32,6 29,8 22,0 19,0 13 7 26 14 ENE 1012,7 50 60 0,0
21.07.2018 12:00:00 24,3 9,7 30,7 27,8 21,2 19,0 10 5 22 12 ENE 1012,9 50 60 0,0
21.07.2018 11:00:00 23,7 10,8 28,5 25,5 20,5 19,0 13 7 24 13 E 1013,0 10 60 0,0
21.07.2018 10:00:00 22,9 11,2 27,0 23,2 20,0 19,0 14 8 24 13 ENE 1013,1 50 60 0,0
21.07.2018 09:00:00 21,3 11,0 24,4 20,6 19,7 19,0 12 7 18 10 E 1013,1 50 60 0,0
21.07.2018 08:00:00 18,6 12,9 20,1 18,4 19,7 19,0 9 5 14 7 ENE 1012,9 10 60 0,0
21.07.2018 07:00:00 15,4 12,3 14,5 16,7 20,0 19,0 4 2 8 4 NE 1013,1 50 46 0,0
21.07.2018 06:00:00 12,4 10,4 10,2 16,5 20,3 19,0 5 3 5 3 NNE 1013,2 10 0 0,0
21.07.2018 05:00:00 13,0 10,4 9,6 16,9 20,7 19,0 5 3 8 4 NNE 1013,2 50 0 0,0
21.07.2018 04:00:00 13,4 10,3 9,9 17,4 21,1 19,0 4 2 8 4 ENE 1012,9 10 0 0,0
21.07.2018 03:00:00 14,5 9,6 10,5 18,0 21,5 19,0 4 2 9 5 NE 1013,2 50 0 0,0
21.07.2018 02:00:00 15,9 9,2 11,2 18,6 22,0 19,0 9 5 13 7 NE 1013,2 50 0 0,0
21.07.2018 01:00:00 16,9 9,8 12,0 19,5 22,4 19,0 8 4 9 5 NNE 1013,4 10 0 0,0
21.07.2018 00:00:00 17,4 9,6 12,9 20,5 22,9 19,0 6 4 15 8 NE 1013,4 50 0 0,0
20.07.2018 23:00:00 20,8 8,8 19,1 21,6 23,3 19,0 11 6 21 11 NNE 1013,3 50 0 0,0
20.07.2018 22:00:00 22,2 9,0 20,6 22,7 23,6 19,0 16 9 22 12 N 1012,9 10 0 0,0
20.07.2018 21:00:00 24,0 9,6 21,9 24,0 23,9 19,0 11 6 16 9 N 1012,5 10 0 0,0
20.07.2018 20:00:00 25,1 9,5 24,6 25,3 24,1 19,0 12 6 22 12 NNW 1012,6 50 52 0,0
20.07.2018 19:00:00 26,1 9,2 26,8 26,4 24,2 19,0 13 7 25 14 NNW 1012,5 10 56 0,0
20.07.2018 18:00:00 26,2 9,5 26,5 27,8 24,1 19,0 11 6 28 15 NNW 1012,8 10 48 0,0
20.07.2018 17:00:00 26,5 8,6 27,6 29,1 23,8 19,0 19 10 36 19 WNW 1013,1 50 47 0,0
20.07.2018 16:00:00 26,8 9,2 31,2 29,4 23,3 19,0 13 7 30 16 NW 1013,8 50 42 0,0
20.07.2018 15:00:00 25,6 9,6 28,0 28,9 22,8 19,0 15 8 26 14 NW 1014,3 50 25 0,0
20.07.2018 14:00:00 24,7 10,4 26,6 28,9 22,2 19,1 18 10 26 14 W 1014,8 10 28 0,0
20.07.2018 13:00:00 25,1 10,0 29,7 28,9 21,4 19,1 14 8 29 15 W 1015,0 50 60 0,0
20.07.2018 12:00:00 24,4 10,3 28,2 27,1 20,6 19,1 13 7 27 15 WNW 1015,3 50 60 0,0
20.07.2018 11:00:00 23,4 10,5 26,9 24,8 19,9 19,1 12 7 21 11 W 1015,6 40 56 0,0
20.07.2018 10:00:00 22,0 11,1 24,4 22,6 19,3 19,1 11 6 18 10 W 1015,9 40 59 0,0
20.07.2018 09:00:00 20,7 11,5 22,5 20,1 19,0 19,1 6 3 11 6 NNW 1015,8 45 58 0,0
20.07.2018 08:00:00 18,4 11,9 19,2 17,8 19,0 19,1 3 2 5 3 W 1015,9 45 60 0,0
20.07.2018 07:00:00 16,0 11,2 15,3 16,0 19,2 19,1 3 1 5 3 SSW 1015,9 45 60 0,0
20.07.2018 06:00:00 12,8 10,4 10,1 15,5 19,5 19,1 3 2 9 5 W 1016,1 40 1 0,0
20.07.2018 05:00:00 13,5 10,1 9,9 15,9 19,9 19,1 7 4 9 5 WSW 1016,1 40 0 0,0
20.07.2018 04:00:00 13,5 9,9 9,9 16,4 20,2 19,1 4 2 9 5 SSW 1016,2 10 0 0,0
20.07.2018 03:00:00 12,9 9,9 10,2 17,0 20,6 19,1 4 2 5 3 S 1016,5 10 0 0,0
20.07.2018 02:00:00 14,6 10,4 10,5 17,7 21,0 19,0 5 3 9 5 N 1016,7 10 0 0,0
20.07.2018 01:00:00 15,4 10,5 10,6 18,4 21,3 19,0 5 3 11 6 NNE 1016,7 50 0 0,0
20.07.2018 00:00:00 18,0 9,2 13,4 19,4 21,7 19,0 10 5 15 8 NNE 1016,4 50 0 0,0
19.07.2018 23:00:00 20,3 9,0 18,4 20,3 21,9 19,0 9 5 22 12 N 1016,5 10 0 0,0
19.07.2018 22:00:00 21,8 10,0 20,3 21,4 22,1 19,0 16 9 24 13 N 1016,5 10 0 0,0
19.07.2018 21:00:00 23,5 10,9 22,2 22,6 22,2 19,0 13 7 25 14 N 1015,9 10 49 0,0
19.07.2018 20:00:00 24,5 11,4 24,9 23,5 22,1 19,0 16 9 28 15 N 1015,5 50 60 0,0
19.07.2018 19:00:00 25,0 11,9 26,5 23,7 22,0 19,0 15 8 22 12 N 1015,5 50 26 0,0
19.07.2018 18:00:00 23,8 12,6 24,8 23,3 21,9 19,0 8 4 16 9 NNE 1015,8 10 0 0,0
19.07.2018 17:00:00 22,8 13,6 23,8 22,9 21,8 19,0 11 6 18 10 N 1016,2 10 1 0,0
19.07.2018 16:00:00 21,3 14,7 22,2 21,8 21,9 19,0 10 6 23 13 NNE 1016,7 40 0 0,0
19.07.2018 15:00:00 20,1 15,5 18,6 22,1 21,9 19,0 18 10 36 20 N 1016,9 10 0 0,2
19.07.2018 14:00:00 21,7 13,9 22,0 22,9 21,8 19,0 18 10 35 19 N 1016,9 10 0 0,0
19.07.2018 13:00:00 21,7 14,7 23,0 22,6 21,7 19,0 22 12 30 16 NNW 1016,8 10 0 0,0
19.07.2018 12:00:00 20,7 15,9 21,6 22,2 21,7 19,0 16 9 34 18 NW 1016,7 10 0 0,0
19.07.2018 11:00:00 20,5 15,3 21,2 22,4 21,6 19,0 17 9 29 16 NNW 1016,5 35 0 0,0
19.07.2018 10:00:00 20,4 15,4 21,3 22,4 21,4 19,0 21 11 29 16 NNW 1016,3 40 10 0,0
19.07.2018 09:00:00 20,7 15,5 22,6 21,9 21,3 18,9 18 10 29 16 NW 1016,0 10 58 0,0
19.07.2018 08:00:00 19,2 14,4 20,3 20,2 21,4 18,9 16 9 29 15 WNW 1016,0 10 60 0,0
19.07.2018 07:00:00 18,0 13,5 17,9 19,2 21,6 18,9 16 9 22 12 WNW 1015,8 10 49 0,0
19.07.2018 06:00:00 17,4 13,0 16,5 19,2 21,9 18,9 15 8 19 10 WNW 1015,5 40 0 0,0
19.07.2018 05:00:00 18,1 13,2 16,8 19,6 22,2 18,9 15 8 21 11 WNW 1015,6 10 0 0,0
19.07.2018 04:00:00 18,8 13,2 17,7 20,1 22,5 18,9 15 8 23 13 WNW 1015,5 10 0 0,0
19.07.2018 03:00:00 19,7 13,4 18,4 20,6 22,9 18,9 13 7 25 14 W 1015,6 10 0 0,0
19.07.2018 02:00:00 20,5 13,5 19,4 21,2 23,2 18,9 13 7 26 14 W 1015,5 10 0 0,0
19.07.2018 01:00:00 21,2 13,5 19,8 21,7 23,6 18,8 15 8 22 12 WNW 1015,5 40 0 0,0
19.07.2018 00:00:00 21,8 13,4 20,7 22,4 23,9 18,8 15 8 28 15 NNW 1015,5 40 0 0,0
18.07.2018 23:00:00 22,4 13,2 21,4 23,2 24,3 18,8 16 9 31 17 NNW 1015,0 10 0 0,0
18.07.2018 22:00:00 23,5 13,0 22,6 24,1 24,6 18,8 15 8 26 14 NNW 1014,9 10 0 0,0
18.07.2018 21:00:00 24,8 13,0 23,8 25,3 24,8 18,8 21 11 35 19 NW 1014,4 10 29 0,0
18.07.2018 20:00:00 25,6 12,6 25,8 26,4 24,9 18,8 22 12 34 18 NW 1014,1 10 55 0,0
18.07.2018 19:00:00 26,2 12,2 27,6 27,1 25,0 18,8 24 13 53 29 NW 1013,8 45 51 0,0
18.07.2018 18:00:00 26,4 12,2 27,5 28,1 24,9 18,8 24 13 42 23 NW 1013,9 10 55 0,0
18.07.2018 17:00:00 26,4 12,3 29,1 29,6 24,7 18,8 28 15 39 21 WNW 1014,0 10 60 0,0
18.07.2018 16:00:00 26,4 12,2 29,6 29,8 24,2 18,8 28 15 41 22 WNW 1013,8 10 60 0,0
18.07.2018 15:00:00 25,9 12,7 29,4 29,7 23,7 18,7 26 14 42 23 WNW 1014,0 10 60 0,0
18.07.2018 14:00:00 25,7 13,2 29,2 28,8 23,1 18,7 24 13 41 22 NW 1014,2 10 60 0,0
18.07.2018 13:00:00 24,6 13,2 28,1 27,3 22,7 18,7 24 13 46 25 WNW 1014,2 10 50 0,0
18.07.2018 12:00:00 23,3 13,9 25,7 25,6 22,3 18,7 29 16 42 23 WNW 1014,3 10 14 0,0
18.07.2018 11:00:00 23,3 12,5 25,6 24,8 22,0 18,7 29 16 40 22 WNW 1014,3 10 49 0,0
18.07.2018 10:00:00 22,1 14,4 24,1 23,1 21,9 18,7 27 14 38 20 WNW 1014,1 35 27 0,0
18.07.2018 09:00:00 20,6 15,4 21,7 22,0 21,9 18,7 28 15 35 19 WNW 1013,8 10 8 0,0
18.07.2018 08:00:00 19,7 14,6 20,0 20,9 22,0 18,6 19 11 29 16 WNW 1013,2 35 0 0,0
18.07.2018 07:00:00 20,2 15,4 19,9 20,8 22,2 18,6 18 10 24 13 W 1012,8 10 0 0,0
18.07.2018 06:00:00 20,6 15,6 20,0 20,9 22,4 18,6 18 10 36 20 NNW 1012,5 10 0 0,0
18.07.2018 05:00:00 21,3 15,2 20,4 21,2 22,7 18,6 15 8 22 12 WNW 1011,7 10 0 0,0
18.07.2018 04:00:00 21,0 15,9 20,2 21,5 22,9 18,6 15 8 19 10 WNW 1011,5 10 0 0,0
18.07.2018 03:00:00 21,5 16,4 20,6 22,0 23,2 18,6 10 6 18 10 WNW 1011,5 45 0 0,0
18.07.2018 02:00:00 22,0 16,0 21,3 22,4 23,5 18,6 12 7 16 9 WNW 1011,7 45 0 0,0
18.07.2018 01:00:00 22,1 15,4 21,4 22,8 23,8 18,5 12 6 16 9 NNW 1011,8 45 0 0,0
18.07.2018 00:00:00 22,2 15,4 21,7 23,3 24,1 18,5 13 7 22 12 N 1011,6 45 0 0,0
17.07.2018 23:00:00 22,4 15,5 21,7 23,9 24,5 18,5 13 7 21 11 N 1011,6 10 0 0,0
17.07.2018 22:00:00 22,8 15,3 22,3 24,7 24,8 18,5 15 8 24 13 N 1011,4 10 0 0,0
17.07.2018 21:00:00 23,1 15,4 22,7 26,0 25,0 18,5 13 7 39 21 NE 1011,3 50 18 0,0
17.07.2018 20:00:00 24,5 15,1 26,0 27,2 25,2 18,5 22 12 41 22 NNE 1011,0 50 43 0,0
17.07.2018 19:00:00 24,7 16,4 25,8 27,9 25,3 18,5 29 16 41 22 NE 1011,0 50 31 0,0

tt = Température de l'air
td = dewpoint
tt 5cm = Température de l'air 5cm
tt -5cm = Température de l'air -5cm
tt -20cm = Température de l'air -20cm
tt -100cm = Température de l'air -100cm
ff = Vitesse du vent
fx = gusts
dd = Direction du vent
ppp = reduced air pressure
vv = visibility
sd = Ensoleillement
rr = Quantités de précipitations

stations d'obs. à proximité